www.pogodaiklimat.ru

Погода и климат >> Архив погоды >> Украина >> Мариуполь


АРХИВ ПОГОДЫ в Мариуполе

Время (UTC), дата Ветер
(напр.,м/с)
 
Видим.   Явления Облачность Т
(С)
Тd
(С)
f
(%)
Тe
(С)
Тes
(С)
Комфортность P
(гПа)
Po
(гПа)
Тmin
(С)
Tmax
(С)
R
(мм)
R24
(мм)
S
(см)
06 10.07 ЮВ 1 10 км {ливн. осадки} 4/1 600 м
[Cu hum Ac cast]
+20.3 +14.5 69 +24 +32 комфорт 1008.3 1000.2 +14.9 0.4
09 10.07 Ю 5 20 км 8/8 750 м
[Cu med, cong]
+22.7 +12.3 52 +25 +27 комфорт 1007.1 999.1
12 10.07 Ю 6 20 км 8/5 600 м
[Cb cap Cs]
+23.4 +14.0 56 +27 +29 душно 1006.4 998.4
15 10.07 ЮЗ 6 20 км 6/3 600 м
[Cu hum Cs]
+24.3 +12.5 48 +26 +27 жарко 1005.9 997.9 +41.0
18 10.07 З 3 10 км 6/3 600 м
[Sc diur, vesp Cc]
+21.0 +12.9 60 +24 +24 комфорт 1006.3 998.3 +25.2
21 10.07 СЗ 3 20 км 6/0
[Cs]
+18.7 +8.0 50 +19 +19 по сезону 1006.4 998.3
00 11.07 СЗ 3 10 км 8/0
[Ac trans Cs]
+17.0 +8.4 57 +17 +17 по сезону 1005.9 997.7
03 11.07 С 2 10 км 10/0
[Cc]
+16.4 +9.1 62 +17 +17 прохладно 1005.5 997.3
06 11.07 З 1 10 км 10/0
[As trans Cc]
+21.2 +10.4 50 +23 +30 комфорт 1006.0 998.0 +15.2
09 11.07 ЮВ 4 20 км 10/3 600 м
[Cb cap Ac As]
+23.3 +12.9 52 +26 +29 жарко 1005.7 997.7
12 11.07 СЗ 3 20 км {ливн. осадки} 10/5 600 м
[Cb cap Ac As]
+21.0 +10.4 51 +23 +25 комфорт 1005.6 997.6
15 11.07 З 1 20 км 10/3 600 м
[Cu med, cong Ac und]
+21.7 +10.1 48 +23 +24 комфорт 1005.7 997.7
18 11.07 З 2 20 км 10/4 600 м
[Sc diur, vesp Ac und]
+20.4 +10.9 54 +23 +23 комфорт 1006.1 998.0 +24.5 0.0
21 11.07 З 3 20 км 10/0
[Ac As Cs]
+18.7 +11.2 62 +20 +20 по сезону 1005.9 997.8
00 12.07 СЗ 4 20 км 8/0
[Ac trans]
+16.3 +10.2 67 +16 +16 по сезону 1005.8 997.6
03 12.07 СЗ 4 10 км 8/0
[Ac trans Cs]
+16.8 +10.6 67 +16 +17 холодно 1006.1 997.9
06 12.07 СЗ 2 20 км 8/0
[Ac trans]
+21.1 +12.2 57 +23 +28 комфорт 1007.0 999.0 +16.0 5
09 12.07 Ю 4 20 км в посл. час ливневой дождь 9/9 930 м
[Sc]
+23.6 +14.5 57 +26 +27 жарко 1007.0 999.0
12 12.07 Ю 5 20 км {ливн. осадки} 8/6 960 м
[Cb cap]
+23.5 +13.4 53 +26 +28 жарко 1006.9 998.9
15 12.07 ЮЗ 4 20 км 8/6 900 м
[Sc Cs]
+22.9 +10.6 46 +25 +26 комфорт 1007.2 999.2
18 12.07 З 4 20 км 6/4 600 м
[Sc Cs]
+19.5 +10.0 54 +21 +21 комфорт 1008.1 1000.0 +26.3 0.4
21 12.07 СЗ 3 20 км 9/0
[Cc]
+16.9 +10.3 65 +17 +17 прохладно 1008.1 999.9
00 13.07 З 3 20 км зарница 10/8 870 м
[Cb cap Ac und]
+16.0 +12.2 78 +16 +16 прохладно 1007.5 999.3
03 13.07 С 1 10 км 10/6 960 м
[Sc Ac und]
+16.0 +12.4 79 +17 +17 прохладно 1007.8 999.6
06 13.07 В 1 10 км 8/4 600 м
[Cu med, cong Cs]
+19.6 +13.9 70 +22 +28 комфорт 1008.4 1000.3 +14.8
09 13.07 ЮЗ 5 20 км гроза без осадков 10/8 630 м
[Cb cap Ac und]
+20.4 +15.9 75 +23 +24 комфорт 1009.3 1001.2
12 13.07 Ю 4 20 км {гроза, ливн. осадки} 8/4 700 м
[Cu med, cong Cc]
+23.0 +15.5 63 +27 +32 душно 1008.6 1000.6
15 13.07 З 2 20 км 6/4 600 м
[Cu hum Cc]
+23.9 +14.0 54 +26 +28 жарко 1009.1 1001.1
18 13.07 ЮЗ 3 20 км 6/0
[Ac lent]
+20.2 +14.5 70 +23 +23 комфорт 1009.7 1001.6 +24.5 0.0
21 13.07 З 3 20 км 4/0
[Ac cast]
+17.3 +13.4 78 +17 +17 прохладно 1010.0 1001.8
00 14.07 СЗ 4 10 км ясно +15.5 +11.8 79 +15 +15 прохладно 1009.4 1001.2
03 14.07 З 2 10 км 6/3 1000 м
[Cu med, cong Ac cast]
+15.2 +12.3 83 +15 +15 холодно 1009.7 1001.5
06 14.07 В 2 10 км 3/3 1000 м
[Cu med, cong Ci sp]
+22.4 +14.2 60 +26 +32 жарко 1009.7 1001.7 +14.5
09 14.07 Ю 5 10 км 4/4 600 м
[Cu hum]
+24.5 +18.1 68 +29 +35 душно 1009.4 1001.4
12 14.07 ЮВ 4
{18}
20 км 8/4 600 м
[Cu hum Cc]
+24.8 +16.3 59 +28 +33 жарко 1008.8 1000.9
15 14.07 Ю 3 20 км 8/1 1000 м
[Cu hum Cs]
+24.1 +15.1 57 +27 +29 жарко 1008.6 1000.6
18 14.07 С 2 10 км 3/0
[Cs]
+20.3 +13.5 65 +23 +23 комфорт 1008.6 1000.5 +25.7
21 14.07 С 2
{20}
10 км 3/0
[Cs]
+16.8 +13.4 80 +17 +17 прохладно 1008.5 1000.3
00 15.07 С 2
{18}
10 км 3/0
[Cs]
+15.3 +11.8 80 +15 +15 прохладно 1007.6 999.4
03 15.07 СВ 3 10 км 3/0
[Cs]
+18.9 +13.3 70 +20 +21 по сезону 1007.1 999.0
06 15.07 В 4 20 км 3/0
[Cs]
+23.5 +14.8 58 +26 +32 жарко 1006.9 998.9 +14.5 71
09 15.07 В 5 20 км 8/3 600 м
[Cu hum Ci fib]
+25.7 +15.5 53 +29 +34 душно 1006.2 998.3
12 15.07 В 5 20 км 10/4 600 м
[Cu hum Cs]
+25.9 +16.7 57 +30 +33 душно 1005.3 997.4
15 15.07 В 3 20 км 10/3 600 м
[Cu hum As trans]
+26.2 +15.3 51 +29 +30 жарко 1005.0 997.1 +34.0
18 15.07 Ю 6 20 км гроза без осадков {ливн. осадки} 10/6 630 м
[Cb cap Ac und]
+19.6 +17.0 85 +22 +22 комфорт 1007.5 999.4 +26.6 4
21 15.07 С 2 20 км слаб. ливневой дождь {гроза} 10/5 600 м
[Cb cap Ac und]
+18.2 +15.8 86 +19 +19 по сезону 1007.4 999.3
00 16.07 С 3 10 км ливневой дождь {гроза} 10/8 600 м
[Cb cap Ac und]
+17.4 +15.5 89 +17 +17 по сезону 1006.1 998.0
03 16.07 С 5 2000 м слаб. ливневой дождь 10/8 480 м
[Cb cap Ac und]
+16.0 +14.2 89 +15 +15 холодно 1005.4 997.2
06 16.07 С 4 4000 м слаб. ливневой дождь 10/10 600 м
[Cb cap]
+17.0 +15.8 93 +17 +17 очень
холодно
1004.9 996.8 +15.8 17
09 16.07 С 4 10 км {ливн. осадки} 10/8 600 м
[Cb cap Ac und]
+18.4 +16.7 90 +19 +20 очень
холодно
1004.9 996.8
12 16.07 СЗ 6 10 км {ливн. осадки} 10/8 800 м
[Cb cap Ac und]
+20.5 +17.2 81 +24 +24 комфорт 1004.4 996.4
15 16.07 СЗ 5 10 км 9/3 600 м
[Cu med, cong Ac trans Cc]
+21.4 +15.7 70 +25 +25 комфорт 1005.4 997.4 +36.7
18 16.07 З 3 20 км 10/4 600 м
[Sc As trans]
+19.5 +16.2 81 +22 +22 комфорт 1007.2 999.1 +21.5 2
21 16.07 З 4 20 км 4/0
[Cs]
+17.4 +15.2 87 +17 +17 прохладно 1007.2 999.1
00 17.07 З 4 20 км 4/0
[Cs]
+16.6 +14.1 85 +16 +16 прохладно 1007.5 999.3

 

Местоположение метеостанции Мариуполь (Донецкая область, Украина): широта 47.03 долгота 37.50 высота над уровнем моря 70 м.

В архиве по умолчанию представлена погода в Мариуполе за последнюю неделю. Архивные данные за месяц целиком и за предыдущие месяцы, начиная с января 2011 года, Вы можете получить, выбрав интересующий диапазон дат из раскрывающегося списка и нажав кнопку "Ввод!".


*Определитесь, кто Вы:
робот инопланетянин человек

Внимание! Время в таблицах - всемирное. Для получения местного времени необходимо прибавить поправку, которая равна 2 ч.

Смотрите также архив погоды в соседних городах и на ближайших метеорологических станциях:

Погода в Должанке (Краснодарский край, Россия) (43 км)
Погода в Бердянске (Запорожская область, Украина) (63 км)
Погода в Ейске (Краснодарский край, Россия) (64 км)
Погода в Волновахе (Донецкая область, Украина) (67 км)
Погода в Кирилловке (Запорожская область, Украина) (95 км)
Погода в Маргаритово (Ростовская область, Россия) (105 км)
Погода в Таганроге (Ростовская область, Россия) (108 км)
Погода в Гуляйполе (Запорожская область, Украина) (118 км)
Погода в Матвеевом Кургане (Ростовская область, Россия) (120 км)
Погода в Приморско-Ахтарске (Краснодарский край, Россия) (122 км)

Пояснения к столбцам:

Ветер - указаны скорость ветра в м/с - средняя за 10 мин, порывы в срок и между сроками (в фигурных скобках) и направление, откуда дует ветер: С - северный, СВ - северо-восточный, В - восточный, ЮВ - юго-восточный, Ю - южный, ЮЗ - юго-западный, З - западный, СЗ - северо-западный.
Видимость - горизонтальная дальность видимости в метрах или километрах. При видимости от 1 до 10 км при отсутствии осадков обычно наблюдается дымка, при ухудшении видимости до 1 км и менее - туман. В сухую погоду видимость может ухудшаться дымом, пылью или мглою.
Явления - указаны атмосферные явления, наблюдавшиеся в срок или в последний час перед сроком; фигурными скобками обозначены явления, наблюдавшиеся между сроками (за 1-3 часа до срока); квадратными скобками обозначены град или гололедные отложения с указанием их диаметра в мм.
Облачность - указаны через наклонную черту общая и нижняя облачность в баллах и высота нижней границы облаков в метрах; квадратными скобками обозначены формы облаков: Ci - перистые, Cs - перисто-слоистые, Cc - перисто-кучевые, Ac - высококучевые, As - высокослоистые, Sc - слоисто-кучевые, Ns - слоисто-дождевые, Cu - кучевые, Cb - кучево-дождевые. Подробнее классификацию облаков см. в Атласе облаков (PDF).
T - Температура воздуха - температура, измеренная на высоте 2 м над землей.
Td - Температура точки росы - температура, при понижении до которой содержащийся в воздухе водяной пар достигнет насыщения.
f - Относительная влажность воздуха - влажноcть воздуха, измеренная на высоте 2 м над землей.
Te - Эффективная температура - температура, которую ощущает одетый по сезону человек в тени. Характеристика душности погоды. При расчете учитывается влияние влажности воздуха и скорости ветра на теплоощущения человека.
Tes - Эффективная температура на солнце - температура, которую ощущает человек, с поправкой на солнечный нагрев. Характеристика знойности погоды. Зависит от высоты солнца над горизонтом, облачности и скорости ветра. Ночью, в пасмурную погоду, а также при ветре 12 м/с и более поправка равна нулю.
P - Атмосферное давление - приведенное к уровню моря атмосферное давление.
Po - Атмосферное давление - измеренное на уровне метеостанции атмосферное давление.
Tmin - Минимальная температура - минимум температуры воздуха на высоте 2 м над землей.
Tmax - Максимальная температура - максимум температуры воздуха на высоте 2 м над землей.
R - Количество осадков - Количество выпавших осадков за период времени, мм. При наведении курсора мыши на число - период времени, за который выпало указанное количество осадков.
R24 - Количество осадков - Количество выпавших осадков за 24 часа, мм.
S - Снежный покров - Высота снежного покрова, см. При наведении курсора мыши на число - состояние снежного покрова и степень покрытия местности в баллах.